Weather History for KDRT - March, 2014

Change the Weather History Date:

Sunday, March 16, 2014

  Actual Average Record
Temperature  
Mean Temperature 62 °F 64 °F  
Max Temperature 71 °F 76 °F 100 °F (1908)
Min Temperature 52 °F 52 °F 28 °F (1913)
Degree Days  
Heating Degree Days 3 3  
Month to date heating degree days 104 76  
Since 1 July heating degree days 1511 1312  
Cooling Degree Days 0 3  
Month to date cooling degree days 18 32  
Year to date cooling degree days 63 51  
Growing Degree Days 15 (Base 50)    
Moisture  
Dew Point 30 °F    
Average Humidity 33    
Maximum Humidity 48    
Minimum Humidity 17    
Precipitation  
Precipitation 0.00 in 0.04 in 1.19 in (1994)
Month to date precipitation 0.22 0.61  
Year to date precipitation 0.44 2.21  
Sea Level Pressure  
Sea Level Pressure 29.94 in    
Wind  
Wind Speed 16 mph (NNW)    
Max Wind Speed 31 mph    
Max Gust Speed 39 mph    
Visibility 10 miles    
Events      
T = Trace of Precipitation, MM = Missing Value Source: NWS Daily Summary

Daily Weather History Graph

Daily Weather History Graph

Search for Another Location

Airport or City:

Trip Planner

Search our weather history database for the weather conditions in past years. The results will help you decide how hot, cold, wet, or windy it might be!

Date:

Astronomy

Mar. 16, 2014 Rise Set
Actual Time 7:52 AM CDT 7:52 PM CDT
Civil Twilight 7:28 AM CDT 8:16 PM CDT
Nautical Twilight 7:00 AM CDT 8:44 PM CDT
Astronomical Twilight 6:33 AM CDT 9:11 PM CDT
Moon 8:08 PM CDT (3/16) 7:38 AM CDT (3/16)
Length of Visible Light 12h 47m
Length of Day
12h 00m
Full, 100% of the Moon is Illuminated
Mar 16
Full
Mar 16
Full
Mar 23
Last Quarter
Mar 30
New
Apr 7
First Quarter

Hourly Weather History & Observations

Time (CDT) Temp. Dew Point Humidity Pressure Visibility Wind Dir Wind Speed Gust Speed Precip Events Conditions
12:53 AM 68.0 °F 30.9 °F 25% 29.73 in 10.0 mi West 5.8 mph - N/A   Clear
1:53 AM 66.9 °F 32.0 °F 27% 29.76 in 10.0 mi West 8.1 mph - N/A   Scattered Clouds
2:53 AM 70.0 °F 28.9 °F 22% 29.78 in 10.0 mi NNW 9.2 mph - N/A   Partly Cloudy
3:53 AM 71.1 °F 30.9 °F 23% 29.78 in 10.0 mi NW 9.2 mph - N/A   Mostly Cloudy
4:53 AM 69.1 °F 32.0 °F 25% 29.78 in 10.0 mi WNW 11.5 mph - N/A   Scattered Clouds
5:53 AM 66.0 °F 43.0 °F 43% 29.81 in 10.0 mi North 18.4 mph 27.6 mph N/A   Clear
6:53 AM 64.0 °F 43.0 °F 46% 29.87 in 10.0 mi NNW 15.0 mph 28.8 mph N/A   Partly Cloudy
7:53 AM 62.1 °F 43.0 °F 50% 29.91 in 10.0 mi NNW 12.7 mph 23.0 mph N/A   Partly Cloudy
8:53 AM 61.0 °F 35.1 °F 38% 29.95 in 10.0 mi NW 26.5 mph 33.4 mph N/A   Overcast
9:53 AM 61.0 °F 30.9 °F 32% 30.03 in 10.0 mi NW 21.9 mph 33.4 mph N/A   Overcast
10:53 AM 61.0 °F 32.0 °F 34% 30.06 in 10.0 mi NNW 17.3 mph 31.1 mph N/A   Overcast
11:53 AM 62.1 °F 32.0 °F 32% 30.07 in 10.0 mi NW 23.0 mph 38.0 mph N/A   Mostly Cloudy
12:53 PM 64.9 °F 30.9 °F 28% 30.06 in 10.0 mi NW 18.4 mph 33.4 mph N/A   Clear
1:53 PM 66.9 °F 32.0 °F 27% 30.04 in 10.0 mi NNW 26.5 mph 34.5 mph N/A   Mostly Cloudy
2:53 PM 66.0 °F 28.0 °F 24% 30.02 in 10.0 mi NNW 24.2 mph 33.4 mph N/A   Overcast
3:53 PM 69.1 °F 27.0 °F 21% 29.99 in 10.0 mi NW 21.9 mph 31.1 mph N/A   Clear
4:53 PM 70.0 °F 25.0 °F 18% 29.96 in 10.0 mi NNW 17.3 mph 27.6 mph N/A   Clear
5:53 PM 70.0 °F 23.0 °F 17% 29.95 in 10.0 mi NW 20.7 mph 35.7 mph N/A   Clear
6:53 PM 68.0 °F 21.0 °F 17% 29.96 in 10.0 mi NNW 13.8 mph 29.9 mph N/A   Clear
7:53 PM 64.9 °F 21.9 °F 19% 29.98 in 10.0 mi NW 12.7 mph - N/A   Clear
8:53 PM 64.0 °F 21.0 °F 19% 30.01 in 10.0 mi NNW 11.5 mph - N/A   Overcast
9:53 PM 62.1 °F 21.9 °F 21% 30.04 in 10.0 mi North 13.8 mph - N/A   Clear
10:53 PM 59.0 °F 23.0 °F 25% 30.08 in 10.0 mi North 8.1 mph - N/A   Partly Cloudy
11:53 PM 55.9 °F 23.0 °F 28% 30.08 in 10.0 mi North 6.9 mph - N/A   Partly Cloudy